Total_Precipitation_Accumulation
1.79 1.83 1.91 1.89 1.98 2.08 2.13 2.04 2.15 2.27 2.43 2.41 2.41 2.41 2.29 2.20 2.28 2.41 2.27 2.42 2.44 2.47 2.42 2.45 2.48 2.67 2.79 2.72 2.77 2.83 3.11 3.42 3.34 3.06 2.75 2.57 2.51 2.49 2.35 2.29 2.21 2.10 1.90
1.73 1.76 1.91 1.96 1.92 1.88 1.84 1.87 1.94 1.99 2.07 2.10 2.07 2.09 2.13 2.27 2.37 2.29 2.24 2.26 2.31 2.28 2.36 2.49 2.37 2.53 2.66 2.58 2.70 2.72 2.90 3.27 3.42 3.50 3.39 3.07 2.82 2.67 2.62 2.41 1.99 1.83 1.90
1.81 1.83 1.95 1.88 1.78 1.82 1.96 2.02 1.99 2.00 2.03 2.00 2.00 2.00 2.03 2.23 2.37 2.31 2.31 2.36 2.37 2.25 2.35 2.39 2.25 2.38 2.43 2.46 2.52 2.59 2.78 2.99 3.29 3.24 3.25 3.18 3.02 2.77 2.88 2.57 2.25 2.19 1.80
1.81 1.92 2.05 1.96 1.94 2.02 2.13 2.22 2.17 2.07 2.09 2.16 2.16 2.10 2.12 2.06 2.08 2.23 2.38 2.38 2.35 2.24 2.24 2.16 2.04 2.04 2.13 2.31 2.31 2.44 2.66 2.85 3.05 3.00 3.06 3.16 3.24 3.25 3.27 3.01 2.82 2.58 2.19
1.81 1.94 2.04 2.10 2.09 2.10 2.11 2.22 2.21 2.10 2.08 2.30 2.30 2.26 2.23 2.07 1.94 2.07 2.19 2.12 2.15 2.10 2.06 1.89 1.70 1.76 1.87 1.94 1.86 2.22 2.53 2.65 2.74 2.82 2.91 3.10 3.25 3.49 3.29 3.15 3.03 2.97 2.66
1.66 1.83 1.90 2.02 2.14 2.13 2.09 2.16 2.17 2.22 2.26 2.29 2.23 2.22 2.11 1.79 1.85 1.81 1.77 1.81 1.88 1.89 1.92 1.90 1.75 1.65 1.60 1.64 1.60 1.77 2.09 2.24 2.43 2.73 2.86 3.05 3.15 3.17 3.34 3.32 3.27 3.12 2.83
1.54 1.69 1.82 1.95 2.04 2.08 2.03 2.13 2.26 2.25 2.17 2.07 2.01 2.01 1.95 1.87 1.72 1.48 1.42 1.55 1.73 1.81 1.85 1.88 1.63 1.50 1.58 1.46 1.54 1.60 1.64 1.74 1.90 2.28 2.55 2.64 2.70 2.75 3.06 3.16 3.17 3.05 2.95
1.61 1.73 1.81 1.96 2.01 2.04 2.02 2.00 2.03 2.03 2.01 2.00 1.89 1.88 1.96 1.85 1.74 1.48 1.38 1.34 1.54 1.58 1.58 1.61 1.65 1.61 1.53 1.59 1.57 1.55 1.46 1.49 1.59 1.62 1.78 2.01 2.28 2.53 2.74 2.93 3.21 3.17 3.10
1.63 1.77 1.89 1.99 2.02 2.01 2.02 1.98 2.01 2.00 1.94 1.94 1.92 1.94 1.93 1.86 1.80 1.57 1.48 1.44 1.55 1.56 1.59 1.60 1.68 1.72 1.75 1.62 1.57 1.58 1.57 1.58 1.55 1.55 1.48 1.58 1.75 1.89 2.08 2.37 2.73 3.07 3.27
1.67 1.76 1.88 1.98 2.10 2.06 2.15 2.20 2.16 2.06 1.96 1.94 1.98 1.94 1.84 1.79 1.69 1.50 1.48 1.47 1.65 1.76 1.87 1.86 1.76 1.64 1.65 1.55 1.51 1.59 1.56 1.57 1.49 1.45 1.39 1.36 1.36 1.50 1.70 1.93 2.25 2.63 2.91
1.74 1.84 1.94 2.03 2.10 2.09 2.15 2.20 2.20 2.13 2.09 1.98 1.86 1.87 1.86 1.75 1.56 1.30 1.26 1.30 1.55 1.78 1.83 1.78 1.66 1.52 1.38 1.34 1.31 1.40 1.49 1.44 1.43 1.47 1.50 1.49 1.51 1.55 1.62 1.73 2.05 2.32 2.46
1.88 1.87 1.95 2.08 1.93 1.92 2.14 2.21 2.23 2.25 2.21 2.08 1.96 1.89 1.90 1.82 1.53 1.35 1.30 1.30 1.45 1.71 1.91 1.87 1.72 1.54 1.35 1.26 1.11 1.17 1.24 1.18 1.24 1.42 1.49 1.51 1.53 1.56 1.64 1.76 1.97 2.18 2.37
1.89 1.93 1.95 1.99 2.10 2.16 2.21 2.27 2.24 2.19 2.16 2.13 2.08 1.97 1.94 1.97 1.89 1.62 1.48 1.44 1.52 1.59 1.75 1.92 1.79 1.49 1.25 1.15 1.12 1.04 0.94 0.95 1.11 1.23 1.30 1.39 1.45 1.54 1.67 1.85 2.08 2.25 2.32
2.02 2.11 2.10 2.06 2.09 2.25 2.41 2.41 2.32 2.18 2.21 2.25 2.14 2.11 2.13 2.15 2.04 1.82 1.65 1.55 1.57 1.56 1.58 1.59 1.55 1.40 1.20 1.21 1.22 1.08 0.96 1.04 1.11 1.12 1.19 1.31 1.39 1.49 1.64 1.76 1.95 2.17 2.31
2.21 2.21 2.23 2.24 2.28 2.36 2.35 2.33 2.32 2.27 2.21 2.25 2.22 2.19 2.17 2.11 1.99 1.87 1.74 1.68 1.66 1.61 1.53 1.53 1.49 1.48 1.34 1.29 1.34 1.33 1.29 1.33 1.29 1.23 1.26 1.30 1.36 1.42 1.50 1.63 1.80 1.92 2.04
2.48 2.38 2.38 2.38 2.38 2.37 2.40 2.24 2.10 2.01 1.96 1.87 1.90 1.89 1.80 1.77 1.71 1.61 1.59 1.57 1.54 1.54 1.44 1.51 1.62 1.60 1.54 1.53 1.52 1.50 1.49 1.46 1.45 1.48 1.46 1.42 1.42 1.45 1.43 1.50 1.63 1.72 1.75
2.62 2.58 2.47 2.41 2.34 2.32 2.40 2.42 2.34 2.19 2.12 1.96 1.81 1.72 1.68 1.64 1.55 1.46 1.46 1.52 1.53 1.51 1.44 1.55 1.70 1.72 1.70 1.70 1.62 1.57 1.61 1.56 1.57 1.59 1.57 1.56 1.58 1.59 1.56 1.57 1.66 1.77 1.77
2.53 2.51 2.46 2.42 2.34 2.33 2.41 2.47 2.41 2.37 2.33 2.18 1.96 1.84 1.65 1.49 1.39 1.37 1.45 1.45 1.42 1.40 1.48 1.69 1.85 1.85 1.85 1.81 1.72 1.64 1.64 1.62 1.60 1.60 1.60 1.58 1.60 1.67 1.68 1.65 1.66 1.73 1.73
2.49 2.43 2.38 2.35 2.41 2.47 2.51 2.57 2.53 2.48 2.43 2.33 2.08 1.90 1.78 1.53 1.40 1.38 1.39 1.33 1.44 1.55 1.63 1.75 1.81 1.83 1.83 1.76 1.66 1.61 1.64 1.60 1.57 1.61 1.61 1.61 1.61 1.70 1.69 1.66 1.64 1.71 1.64
2.56 2.55 2.45 2.31 2.29 2.41 2.52 2.50 2.50 2.50 2.42 2.33 2.20 1.98 1.75 1.58 1.49 1.49 1.41 1.41 1.50 1.56 1.59 1.60 1.59 1.59 1.62 1.65 1.66 1.68 1.72 1.69 1.66 1.64 1.59 1.58 1.59 1.63 1.65 1.66 1.64 1.62 1.57
2.28 2.23 2.19 2.03 1.99 2.05 2.24 2.33 2.38 2.46 2.34 2.19 2.11 2.04 1.81 1.52 1.52 1.53 1.52 1.48 1.50 1.53 1.52 1.53 1.52 1.49 1.46 1.53 1.59 1.60 1.64 1.65 1.61 1.57 1.57 1.60 1.57 1.61 1.60 1.58 1.54 1.48 1.47
2.12 2.07 1.96 1.86 1.88 1.96 2.07 2.14 2.24 2.33 2.29 2.20 2.07 1.97 1.87 1.60 1.52 1.49 1.44 1.42 1.41 1.42 1.42 1.50 1.52 1.47 1.45 1.53 1.57 1.58 1.57 1.53 1.50 1.48 1.47 1.46 1.48 1.52 1.51 1.52 1.53 1.51 1.49
2.27 2.18 2.13 2.08 1.99 2.05 2.03 2.07 2.19 2.17 2.09 2.06 1.98 1.86 1.76 1.73 1.64 1.54 1.45 1.38 1.35 1.35 1.35 1.38 1.42 1.40 1.38 1.39 1.43 1.42 1.38 1.35 1.32 1.30 1.35 1.38 1.41 1.46 1.48 1.50 1.55 1.60 1.58
2.28 2.29 2.19 2.06 1.97 1.92 1.92 2.02 2.05 1.96 1.83 1.81 1.77 1.67 1.65 1.66 1.62 1.54 1.40 1.34 1.34 1.31 1.26 1.23 1.18 1.14 1.13 1.16 1.20 1.21 1.18 1.17 1.16 1.20 1.24 1.31 1.33 1.36 1.40 1.47 1.55 1.61 1.59
2.08 2.16 2.18 2.08 1.93 1.80 1.74 1.76 1.74 1.68 1.63 1.59 1.58 1.57 1.56 1.51 1.46 1.37 1.30 1.27 1.24 1.19 1.09 1.05 1.03 1.02 0.99 0.99 0.99 1.02 1.10 1.13 1.14 1.13 1.14 1.21 1.25 1.30 1.31 1.36 1.43 1.49 1.48
1.91 1.95 1.91 1.81 1.68 1.56 1.53 1.55 1.54 1.47 1.42 1.37 1.33 1.32 1.27 1.24 1.21 1.15 1.08 1.08 1.09 1.09 1.06 1.02 1.02 1.02 1.01 0.98 0.96 0.98 0.97 0.92 0.97 1.01 0.96 0.95 1.06 1.15 1.14 1.10 1.10 1.21 1.25